Weather in Mojkovac

Montenegro     42°57′49″N   19°34′40″E
temp.,
°C
wind,
m/s
gust,
m/s
humid.,
%
clouds,
%
prec.,
mm/h
press.,
hPa
HPBL,
m
24 january, sun
sun2401:000ssw389898 7.4 1004636
04:00−1ssw4139473 0.4 1005731
07:00−1ssw379677 0.4 1004487
10:00+1ssw313100100 1.9 10041114
13:00+1s41599100 4.1 10011290
16:00+1s41899100 1.6 9991266
19:000s41899100 18.9 9951299
22:000sse2799100 19.3 993368
25 january, mon
mon2501:000sw51698100 27.1 9951111
04:00−2w259571 0.3 1001215
07:00−7wnw239685 1.6 1005110
10:00−2s129350 0.1 1006269
13:00−1ssw389275 0.4 1004921
16:00−3s41696100 2.6 10011215
19:000ssw41798100 14.1 10001357
22:00−3sw2496100 7.6 1001193
26 january, tue
tue2601:00−4sw2397100 9.1 1003143
04:00−5nnw2398100 2.1 1005158
07:00−6nnw2397100 5.4 1008196
10:00−6n3694100 2.3 1010661
13:00−5n3691100 2.8 1010883
16:00−7n3895100 0.6 1012840
19:00−9n2997100 1.1 1014639
22:00−9n3109699 0.5 1015726
27 january, wed
wed2701:00−11n3109699 0.8 1016697
04:00−10n31197100 0.4 1017730
07:00−11nw2396100 0.9 1018103
10:00−8nnw3891100 0.1 1018793
13:00−6nnw3789100 0.4 10171099
16:00−7nw2394100 0.3 1017169
19:00−11w228583 0.3 102022
22:00−12w227925 0.0 102121
28 january, thu
thu2801:00−12w227821 0.0 102221
04:00−12w22800 0.0 102221
07:00−12wsw22807 0.0 102321
10:00−5sw128267 0.0 1021154
13:00−2sw248061 0.0 1019468
16:00−4sw348891 0.0 1017142
19:00−6sw349195 0.0 1017111
22:00−5sw3592100 0.0 1017209